M I D A S
Marine Information and Data Acquisition System
Tripno 1674 of the Zeeleeuw from 2009-04-09 07:16:14 to 2009-04-09 14:23:04
Back to CruiseResearch ActivitiesStationsMapUnderway DataData graphs

EquipmentUnitsComments
TimeDGPSUTC
LatitudeDGPSDM.mWGS84
LongitudeDGPSDM.mWGS84
SpeedMeteo Stationm/sRelative wind speed
DirectionMeteo StationdegRelative wind direction
TemperatureMeteo Stationdeg CelciusAir temperature
PressureMeteo StationPaAtmospheric pressure
HumidityMeteo Station%Relative humidity
Missing or incorrect values are displayed as -999
Metereological data collected by the RV Zeeleeuw from 2009-04-09 07:33:28 to 2009-04-09 14:35:49
                                                                                    Next 1000 lines
Time Latitude Longitude Speed Direction Temperature Pressure Humidity
2009-04-09 07:33:39 51°13.663 2°55.956 1.8 8 11.9 101300 100
2009-04-09 07:33:43 51°13.663 2°55.955 1.9 10 11.9 101300 100
2009-04-09 07:33:49 51°13.665 2°55.951 1.9 10 11.9 101290 100
2009-04-09 07:33:54 51°13.666 2°55.947 1.9 9 11.9 101290 100
2009-04-09 07:33:59 51°13.667 2°55.943 1.7 8 11.9 101300 100
2009-04-09 07:34:05 51°13.669 2°55.938 1.8 12 11.9 101300 100
2009-04-09 07:34:10 51°13.67 2°55.933 1.2 19 11.9 101300 100
2009-04-09 07:34:16 51°13.672 2°55.926 1.7 29 11.9 101300 100
2009-04-09 07:34:22 51°13.674 2°55.919 2.8 23 11.9 101300 100
2009-04-09 07:34:27 51°13.676 2°55.913 3.4 21 11.9 101300 100
2009-04-09 07:34:32 51°13.678 2°55.907 3 31 11.9 101300 100
2009-04-09 07:34:37 51°13.68 2°55.9 2.5 26 11.9 101300 100
2009-04-09 07:34:42 51°13.682 2°55.893 2.5 29 11.9 101300 100
2009-04-09 07:34:47 51°13.684 2°55.887 2.7 21 11.9 101300 100
2009-04-09 07:34:52 51°13.685 2°55.88 2.1 23 11.9 101300 100
2009-04-09 07:34:57 51°13.687 2°55.872 2.1 27 11.9 101300 100
2009-04-09 07:35:02 51°13.688 2°55.865 2.4 37 11.9 101300 100
2009-04-09 07:35:07 51°13.689 2°55.857 2.6 36 11.9 101300 100
2009-04-09 07:35:12 51°13.69 2°55.85 3 32 12 101300 100
2009-04-09 07:35:17 51°13.691 2°55.841 3 40 12 101300 100
2009-04-09 07:35:22 51°13.691 2°55.833 3.5 27 11.9 101300 100
2009-04-09 07:35:27 51°13.692 2°55.826 3.7 31 11.9 101300 100
2009-04-09 07:35:32 51°13.692 2°55.818 2.8 30 11.9 101300 100
2009-04-09 07:35:37 51°13.692 2°55.81 2.5 35 11.9 101300 100
2009-04-09 07:35:42 51°13.692 2°55.802 2.2 45 11.9 101300 100
2009-04-09 07:35:47 51°13.692 2°55.795 3.2 43 11.9 101300 100
2009-04-09 07:35:52 51°13.692 2°55.787 3 39 11.9 101300 100
2009-04-09 07:35:57 51°13.692 2°55.78 3.3 -999 11.9 101300 100
2009-04-09 07:36:02 51°13.692 2°55.773 3.2 43 11.9 101300 100
2009-04-09 07:36:07 51°13.692 2°55.767 2.8 41 11.9 101300 100
2009-04-09 07:36:12 51°13.692 2°55.761 3.8 43 11.9 101300 100
2009-04-09 07:36:17 51°13.691 2°55.756 3.1 31 11.9 101300 100
2009-04-09 07:36:22 51°13.691 2°55.751 3.5 30 11.9 101300 100
2009-04-09 07:36:27 51°13.691 2°55.748 3.2 28 11.9 101300 100
2009-04-09 07:36:31 51°13.691 2°55.745 3.7 31 11.9 101300 100
2009-04-09 07:36:36 51°13.691 2°55.743 3.3 25 11.9 101300 100
2009-04-09 07:36:41 51°13.691 2°55.741 2.9 27 11.9 101300 100
2009-04-09 07:36:46 51°13.691 2°55.74 2.3 35 11.9 101300 100
2009-04-09 07:36:51 51°13.692 2°55.739 3.3 33 11.9 101300 100
2009-04-09 07:36:56 51°13.692 2°55.74 4 -999 11.9 101300 100
2009-04-09 07:37:00 51°13.693 2°55.74 2.9 42 11.9 101300 100
2009-04-09 07:37:06 51°13.695 2°55.741 1.7 79 11.9 101300 100
2009-04-09 07:37:10 51°13.697 2°55.742 2.9 35 11.9 101300 100
2009-04-09 07:37:15 51°13.699 2°55.743 4.1 77 11.9 101300 100
2009-04-09 07:37:20 51°13.701 2°55.744 3 22 11.9 101300 100
2009-04-09 07:37:25 51°13.703 2°55.745 2.1 77 11.9 101300 100
2009-04-09 07:37:30 51°13.706 2°55.745 2.5 28 11.9 101300 100
2009-04-09 07:37:34 51°13.708 2°55.745 2.5 79 11.9 101300 100
2009-04-09 07:37:39 51°13.711 2°55.745 2 24 11.9 101300 100
2009-04-09 07:37:44 51°13.714 2°55.744 2.3 74 11.9 101300 100
2009-04-09 07:37:49 51°13.718 2°55.744 1.9 25 11.9 101300 100
2009-04-09 07:37:54 51°13.721 2°55.742 1.4 -999 11.9 101300 100
2009-04-09 07:37:59 51°13.725 2°55.74 1.9 24 12 101300 100
2009-04-09 07:38:03 51°13.728 2°55.737 1.8 76 12 101300 100
2009-04-09 07:38:09 51°13.733 2°55.732 2.4 27 12 101300 100
2009-04-09 07:38:14 51°13.738 2°55.728 2.3 285 12 101300 100
2009-04-09 07:38:18 51°13.742 2°55.724 2.3 268 12 101300 100
2009-04-09 07:38:23 51°13.748 2°55.72 2.3 286 12 101300 100
2009-04-09 07:38:28 51°13.754 2°55.715 2.6 259 12 101300 100
2009-04-09 07:38:34 51°13.762 2°55.708 1.7 284 12 101300 100
2009-04-09 07:38:38 51°13.767 2°55.703 2.3 252 12.1 101300 100
2009-04-09 07:38:42 51°13.773 2°55.698 2.1 282 12.1 101300 100
2009-04-09 07:38:48 51°13.781 2°55.689 2.2 256 12 101290 100
2009-04-09 07:38:53 51°13.789 2°55.68 2.5 282 12 101290 100
2009-04-09 07:38:58 51°13.797 2°55.672 2.6 26 12 101300 100
2009-04-09 07:39:04 51°13.807 2°55.662 2.4 279 12 101300 100
2009-04-09 07:39:08 51°13.815 2°55.656 2 248 12 101300 100
2009-04-09 07:39:13 51°13.824 2°55.648 2.4 283 12 101300 100
2009-04-09 07:39:18 51°13.833 2°55.639 2 261 12 101300 100
2009-04-09 07:39:22 51°13.841 2°55.632 1.8 279 12 101300 100
2009-04-09 07:39:28 51°13.852 2°55.622 1.4 260 12 101300 100
2009-04-09 07:39:34 51°13.865 2°55.612 1.2 281 12 101300 100
2009-04-09 07:39:38 51°13.873 2°55.605 2.7 19 12 101300 100
2009-04-09 07:39:42 51°13.882 2°55.597 1.5 283 12 101300 100
2009-04-09 07:39:48 51°13.895 2°55.586 1.1 329 12.1 101300 100
2009-04-09 07:39:54 51°13.908 2°55.575 1.3 -999 12.1 101300 100
2009-04-09 07:39:58 51°13.916 2°55.568 2 323 12.1 101290 100
2009-04-09 07:40:03 51°13.928 2°55.56 1.7 285 12.1 101290 100
2009-04-09 07:40:08 51°13.939 2°55.55 2.6 324 12.1 101300 100
2009-04-09 07:40:14 51°13.953 2°55.54 2.5 283 12.1 101300 100
2009-04-09 07:40:18 51°13.962 2°55.533 2.7 327 12.1 101300 100
2009-04-09 07:40:23 51°13.974 2°55.524 3.7 278 12.1 101300 100
2009-04-09 07:40:28 51°13.986 2°55.515 2.5 21 12 101300 100
2009-04-09 07:40:33 51°13.998 2°55.506 2.2 281 12 101300 100
2009-04-09 07:40:38 51°14.01 2°55.497 2.7 319 12.1 101300 100
2009-04-09 07:40:43 51°14.022 2°55.488 2.5 287 12.1 101300 100
2009-04-09 07:40:47 51°14.031 2°55.481 2.3 324 12.1 101300 100
2009-04-09 07:40:54 51°14.048 2°55.468 2.1 -999 12.1 101300 100
2009-04-09 07:40:58 51°14.058 2°55.46 2.1 332 12.1 101300 100
2009-04-09 07:41:03 51°14.07 2°55.451 3.1 286 12.1 101300 100
2009-04-09 07:41:08 51°14.083 2°55.442 3 22 12.1 101290 100
2009-04-09 07:41:14 51°14.097 2°55.43 2.4 281 12.1 101290 100
2009-04-09 07:41:18 51°14.107 2°55.422 1.6 316 12.1 101300 100
2009-04-09 07:41:23 51°14.12 2°55.412 1.7 280 12.1 101300 100
2009-04-09 07:41:29 51°14.134 2°55.399 3.6 23 12.1 101290 100
2009-04-09 07:41:34 51°14.146 2°55.389 2.7 280 12.1 101290 100
2009-04-09 07:41:39 51°14.158 2°55.378 2.6 23 12.1 101300 100
2009-04-09 07:41:45 51°14.172 2°55.364 4.6 284 12.1 101300 100
2009-04-09 07:41:50 51°14.183 2°55.352 3.1 25 12.1 101300 100
2009-04-09 07:41:54 51°14.192 2°55.343 2.8 -999 12.1 101300 100
2009-04-09 07:41:59 51°14.203 2°55.331 2.1 19 12.1 101290 100
2009-04-09 07:42:04 51°14.214 2°55.317 3.2 283 12.1 101290 100
2009-04-09 07:42:09 51°14.225 2°55.305 1.3 256 12.1 101290 100
2009-04-09 07:42:14 51°14.235 2°55.292 0.7 286 12.1 101290 100
2009-04-09 07:42:19 51°14.245 2°55.277 2.2 26 12.1 101300 100
2009-04-09 07:42:24 51°14.255 2°55.263 2.6 282 12.1 101300 100
2009-04-09 07:42:29 51°14.265 2°55.248 2.4 317 12.1 101300 100
2009-04-09 07:42:35 51°14.277 2°55.23 3.2 284 12.1 101300 100
2009-04-09 07:42:39 51°14.284 2°55.217 4.3 28 12.1 101300 100
2009-04-09 07:42:44 51°14.294 2°55.201 4.1 279 12.1 101300 100
2009-04-09 07:42:49 51°14.303 2°55.185 4.5 325 12.1 101300 100
2009-04-09 07:42:54 51°14.313 2°55.17 5 -999 12.1 101300 100
2009-04-09 07:42:59 51°14.323 2°55.154 3.8 320 12.1 101290 100
2009-04-09 07:43:03 51°14.331 2°55.141 4.5 284 12.1 101290 100
2009-04-09 07:43:08 51°14.341 2°55.125 3.8 19 12.1 101300 100
2009-04-09 07:43:14 51°14.353 2°55.106 3.9 280 12.1 101300 100
2009-04-09 07:43:18 51°14.361 2°55.092 4.8 326 12.1 101290 100
2009-04-09 07:43:24 51°14.374 2°55.073 4.7 286 12.1 101290 100
2009-04-09 07:43:28 51°14.382 2°55.059 6.3 21 12.1 101300 100
2009-04-09 07:43:33 51°14.393 2°55.042 5.5 281 12.1 101300 100
2009-04-09 07:43:38 51°14.405 2°55.026 7.3 25 12.1 101300 100
2009-04-09 07:43:44 51°14.418 2°55.004 6.6 281 12.1 101300 100
2009-04-09 07:43:48 51°14.427 2°54.99 5.6 22 12.1 101290 100
2009-04-09 07:43:54 51°14.44 2°54.967 4.7 -999 12.1 101290 100
2009-04-09 07:43:58 51°14.448 2°54.952 4.1 22 12.1 101290 100
2009-04-09 07:44:02 51°14.457 2°54.936 4.7 281 12.1 101290 100
2009-04-09 07:44:09 51°14.473 2°54.91 6.5 21 12.1 101290 100
2009-04-09 07:44:14 51°14.484 2°54.89 6.2 279 12.1 101290 100
2009-04-09 07:44:18 51°14.493 2°54.874 5.3 25 12.1 101290 100
2009-04-09 07:44:23 51°14.504 2°54.853 7.2 280 12.1 101290 100
2009-04-09 07:44:28 51°14.514 2°54.833 5.6 22 12.1 101290 100
2009-04-09 07:44:34 51°14.528 2°54.808 6.7 283 12.1 101290 100
2009-04-09 07:44:38 51°14.537 2°54.792 7.2 21 12 101290 100
2009-04-09 07:44:43 51°14.548 2°54.771 7 280 12 101290 100
2009-04-09 07:44:48 51°14.559 2°54.751 6.8 22 12.1 101290 100
2009-04-09 07:44:54 51°14.572 2°54.726 6 -999 12.1 101290 100
2009-04-09 07:44:58 51°14.581 2°54.71 5.5 19 12 101280 100
2009-04-09 07:45:03 51°14.592 2°54.69 7.1 281 12 101280 100
2009-04-09 07:45:07 51°14.601 2°54.673 6.4 244 12 101290 100
2009-04-09 07:45:14 51°14.616 2°54.645 6.2 284 12 101290 100
2009-04-09 07:45:18 51°14.625 2°54.627 5.6 23 12 101290 100
2009-04-09 07:45:23 51°14.635 2°54.607 7.4 284 12 101290 100
2009-04-09 07:45:29 51°14.648 2°54.582 5.7 26 12 101300 100
2009-04-09 07:45:34 51°14.659 2°54.561 6.9 281 12 101300 100
2009-04-09 07:45:38 51°14.667 2°54.544 6.2 26 12 101290 100
2009-04-09 07:45:43 51°14.678 2°54.522 6 278 12 101290 100
2009-04-09 07:45:48 51°14.689 2°54.502 6.2 25 12 101290 100
2009-04-09 07:45:54 51°14.702 2°54.476 7.3 -999 12 101290 100
2009-04-09 07:45:58 51°14.71 2°54.459 6.2 19 12 101290 100
2009-04-09 07:46:03 51°14.72 2°54.437 5.5 282 12 101290 100
2009-04-09 07:46:09 51°14.733 2°54.412 7.8 22 12 101290 100
2009-04-09 07:46:14 51°14.742 2°54.388 7.5 284 12 101290 100
2009-04-09 07:46:18 51°14.75 2°54.371 7.6 19 12 101290 100
2009-04-09 07:46:23 51°14.758 2°54.347 6.2 282 12 101290 100
2009-04-09 07:46:29 51°14.768 2°54.318 8.2 26 11.9 101290 100
2009-04-09 07:46:34 51°14.774 2°54.293 7.6 281 11.9 101290 100
2009-04-09 07:46:38 51°14.779 2°54.273 8 23 11.9 101290 100
2009-04-09 07:46:43 51°14.785 2°54.247 8.6 281 11.9 101290 100
2009-04-09 07:46:48 51°14.79 2°54.221 8.5 19 11.9 101290 100
2009-04-09 07:46:54 51°14.796 2°54.189 8.8 -999 11.9 101290 100
2009-04-09 07:46:58 51°14.8 2°54.168 6.9 22 12 101290 100
2009-04-09 07:47:03 51°14.805 2°54.141 8.8 285 12 101290 100
2009-04-09 07:47:08 51°14.809 2°54.114 8.3 25 11.9 101290 100
2009-04-09 07:47:14 51°14.814 2°54.082 9.5 280 11.9 101290 100
2009-04-09 07:47:18 51°14.817 2°54.061 7.9 27 11.9 101290 100
2009-04-09 07:47:22 51°14.819 2°54.039 11.6 283 11.9 101290 100
2009-04-09 07:47:28 51°14.824 2°54.006 8.3 21 11.9 101290 100
2009-04-09 07:47:33 51°14.827 2°53.979 10.7 284 11.9 101290 100
2009-04-09 07:47:38 51°14.831 2°53.952 10.5 20 11.9 101280 100
2009-04-09 07:47:43 51°14.834 2°53.925 9.9 283 11.9 101280 100
2009-04-09 07:47:48 51°14.838 2°53.898 10.1 22 11.9 101290 100
2009-04-09 07:47:53 51°14.841 2°53.87 10 -999 11.9 101290 100
2009-04-09 07:47:58 51°14.844 2°53.843 9.5 23 11.9 101290 100
2009-04-09 07:48:03 51°14.848 2°53.815 9.1 279 11.9 101290 100
2009-04-09 07:48:08 51°14.851 2°53.787 10.2 28 11.9 101290 100
2009-04-09 07:48:13 51°14.854 2°53.76 10.6 279 11.9 101290 100
2009-04-09 07:48:18 51°14.857 2°53.732 8.6 24 11.9 101290 100
2009-04-09 07:48:23 51°14.86 2°53.705 11.2 283 11.9 101290 100
2009-04-09 07:48:28 51°14.864 2°53.678 10.3 23 11.9 101290 100
2009-04-09 07:48:33 51°14.868 2°53.651 10.6 282 11.9 101290 100
2009-04-09 07:48:38 51°14.872 2°53.624 7.4 26 11.9 101290 100
2009-04-09 07:48:43 51°14.877 2°53.597 9.2 285 11.9 101290 100
2009-04-09 07:48:47 51°14.88 2°53.575 7.9 24 11.9 101290 100
2009-04-09 07:48:54 51°14.888 2°53.538 9.3 -999 11.9 101290 100
2009-04-09 07:48:58 51°14.892 2°53.517 7.3 20 11.9 101290 100
2009-04-09 07:49:03 51°14.898 2°53.491 8.3 280 11.9 101290 100
2009-04-09 07:49:08 51°14.903 2°53.465 8.9 23 11.9 101290 100
2009-04-09 07:49:14 51°14.911 2°53.434 9.7 280 11.9 101290 100
2009-04-09 07:49:18 51°14.916 2°53.413 8.8 24 11.9 101280 100
2009-04-09 07:49:23 51°14.922 2°53.388 8.9 279 11.9 101280 100
2009-04-09 07:49:28 51°14.929 2°53.362 8.5 24 11.8 101290 100
2009-04-09 07:49:34 51°14.937 2°53.332 8.7 280 11.8 101290 100
2009-04-09 07:49:38 51°14.942 2°53.312 8.7 21 11.8 101290 100
2009-04-09 07:49:42 51°14.947 2°53.291 6.5 285 11.8 101290 100
2009-04-09 07:49:48 51°14.955 2°53.261 7.3 24 11.8 101290 100
2009-04-09 07:49:53 51°14.962 2°53.235 6.9 -999 11.8 101290 100
2009-04-09 07:49:58 51°14.968 2°53.21 8.8 24 11.8 101290 100
2009-04-09 07:50:02 51°14.974 2°53.189 8.7 282 11.8 101290 100
2009-04-09 07:50:08 51°14.982 2°53.159 8.8 24 11.8 101280 100
2009-04-09 07:50:13 51°14.988 2°53.133 7.5 285 11.8 101280 100
2009-04-09 07:50:18 51°14.995 2°53.108 7 22 11.8 101290 100
2009-04-09 07:50:22 51°15 2°53.088 7.3 280 11.8 101290 100
2009-04-09 07:50:28 51°15.009 2°53.058 8.7 25 11.8 101290 100
2009-04-09 07:50:33 51°15.015 2°53.032 7.3 278 11.8 101290 100
2009-04-09 07:50:38 51°15.022 2°53.007 8 26 11.8 101290 100
2009-04-09 07:50:42 51°15.028 2°52.987 6.7 281 11.8 101290 100
2009-04-09 07:50:48 51°15.036 2°52.957 6.7 25 11.8 101290 100
2009-04-09 07:50:53 51°15.043 2°52.931 8.5 -999 11.8 101290 100
2009-04-09 07:50:58 51°15.05 2°52.906 8.5 20 11.8 101290 100
2009-04-09 07:51:02 51°15.055 2°52.886 7.9 285 11.8 101290 100
2009-04-09 07:51:08 51°15.063 2°52.856 8.4 25 11.8 101290 100
2009-04-09 07:51:13 51°15.07 2°52.83 8.2 280 11.8 101290 100
2009-04-09 07:51:18 51°15.077 2°52.805 6.3 24 11.8 101290 100
2009-04-09 07:51:22 51°15.083 2°52.785 6.5 280 11.8 101290 100
2009-04-09 07:51:28 51°15.091 2°52.755 8.3 23 11.8 101290 100
2009-04-09 07:51:33 51°15.098 2°52.73 8.7 278 11.8 101290 100
2009-04-09 07:51:38 51°15.105 2°52.704 7.2 26 11.8 101290 100
2009-04-09 07:51:43 51°15.111 2°52.679 8.2 280 11.8 101290 100
2009-04-09 07:51:48 51°15.118 2°52.653 6.7 239 11.7 101290 100
2009-04-09 07:51:54 51°15.126 2°52.623 6 284 11.7 101290 100
2009-04-09 07:51:58 51°15.132 2°52.603 8.6 21 11.7 101290 100
2009-04-09 07:52:03 51°15.14 2°52.578 8.7 282 11.7 101290 100
2009-04-09 07:52:08 51°15.147 2°52.553 7 240 11.7 101290 100
2009-04-09 07:52:13 51°15.155 2°52.528 7.5 285 11.7 101290 100
2009-04-09 07:52:18 51°15.162 2°52.504 8 20 11.7 101290 100
2009-04-09 07:52:23 51°15.17 2°52.479 8.4 284 11.7 101290 100
2009-04-09 07:52:27 51°15.176 2°52.459 7.7 26 11.7 101290 100
2009-04-09 07:52:33 51°15.185 2°52.429 7.7 282 11.7 101290 100
2009-04-09 07:52:38 51°15.193 2°52.404 8.2 23 11.7 101290 100
2009-04-09 07:52:43 51°15.201 2°52.379 6.2 279 11.7 101290 100
2009-04-09 07:52:47 51°15.207 2°52.359 6.3 26 11.7 101290 100
2009-04-09 07:52:53 51°15.216 2°52.329 6.6 279 11.7 101290 100
2009-04-09 07:52:58 51°15.224 2°52.304 8 26 11.7 101290 100
2009-04-09 07:53:03 51°15.231 2°52.279 6.5 279 11.7 101290 100
2009-04-09 07:53:08 51°15.239 2°52.254 8.4 26 11.7 101290 100
2009-04-09 07:53:14 51°15.248 2°52.224 7.7 285 11.7 101290 100
2009-04-09 07:53:18 51°15.254 2°52.204 8.6 26 11.7 101290 100
2009-04-09 07:53:23 51°15.261 2°52.178 6.5 286 11.7 101290 100
2009-04-09 07:53:28 51°15.269 2°52.153 6.7 26 11.7 101290 100
2009-04-09 07:53:34 51°15.277 2°52.123 6.9 280 11.7 101290 100
2009-04-09 07:53:38 51°15.283 2°52.103 8 238 11.7 101290 100
2009-04-09 07:53:42 51°15.289 2°52.082 8 284 11.7 101290 100
2009-04-09 07:53:48 51°15.298 2°52.051 8.4 239 11.7 101290 100
2009-04-09 07:53:54 51°15.306 2°52.021 6.8 282 11.7 101290 100
2009-04-09 07:53:58 51°15.312 2°52 7.9 240 11.6 101290 100
2009-04-09 07:54:02 51°15.318 2°51.98 8.5 280 11.6 101290 100
2009-04-09 07:54:08 51°15.326 2°51.949 9.1 24 11.6 101290 100
2009-04-09 07:54:13 51°15.333 2°51.922 8 285 11.6 101290 100
2009-04-09 07:54:18 51°15.34 2°51.896 8.2 21 11.6 101290 100
2009-04-09 07:54:22 51°15.345 2°51.875 10.1 285 11.6 101290 100
2009-04-09 07:54:28 51°15.353 2°51.844 10 20 11.6 101290 100
2009-04-09 07:54:33 51°15.36 2°51.818 9 281 11.6 101290 100
2009-04-09 07:54:38 51°15.367 2°51.792 8.8 239 11.6 101280 100
2009-04-09 07:54:42 51°15.372 2°51.771 7.1 280 11.6 101280 100
2009-04-09 07:54:48 51°15.38 2°51.74 6.8 19 11.7 101290 100
2009-04-09 07:54:53 51°15.387 2°51.714 8 286 11.7 101290 100
2009-04-09 07:54:58 51°15.395 2°51.688 8.9 238 11.6 101290 100
2009-04-09 07:55:02 51°15.401 2°51.668 8.6 284 11.6 101290 100
2009-04-09 07:55:08 51°15.41 2°51.638 8.1 238 11.6 101290 100
2009-04-09 07:55:13 51°15.416 2°51.613 8.4 285 11.6 101290 100
2009-04-09 07:55:18 51°15.423 2°51.587 8 241 11.6 101290 100
2009-04-09 07:55:23 51°15.43 2°51.562 8.9 283 11.6 101290 100
2009-04-09 07:55:28 51°15.437 2°51.536 8.5 21 11.6 101290 100
2009-04-09 07:55:33 51°15.444 2°51.511 7.8 281 11.6 101290 100
2009-04-09 07:55:38 51°15.451 2°51.486 7.2 22 11.6 101290 100
2009-04-09 07:55:43 51°15.458 2°51.46 7.1 285 11.6 101290 100
2009-04-09 07:55:48 51°15.465 2°51.434 8.2 240 11.6 101290 100
2009-04-09 07:55:53 51°15.472 2°51.409 6.8 279 11.6 101290 100
2009-04-09 07:55:58 51°15.479 2°51.383 6.9 27 11.6 101290 100
2009-04-09 07:56:03 51°15.486 2°51.357 8.2 280 11.6 101290 100
2009-04-09 07:56:08 51°15.493 2°51.331 6.6 239 11.6 101290 100
2009-04-09 07:56:14 51°15.501 2°51.3 6.9 280 11.6 101290 100
2009-04-09 07:56:18 51°15.507 2°51.28 6.9 239 11.6 101290 100
2009-04-09 07:56:23 51°15.514 2°51.254 7.9 286 11.6 101290 100
2009-04-09 07:56:27 51°15.519 2°51.233 6.9 237 11.6 101290 100
2009-04-09 07:56:33 51°15.528 2°51.202 8.8 281 11.6 101290 100
2009-04-09 07:56:38 51°15.535 2°51.176 7 22 11.6 101290 100
2009-04-09 07:56:43 51°15.542 2°51.15 8.8 286 11.6 101290 100
2009-04-09 07:56:47 51°15.548 2°51.13 8.4 23 11.5 101290 100
2009-04-09 07:56:53 51°15.556 2°51.099 8.6 282 11.5 101290 100
2009-04-09 07:56:58 51°15.564 2°51.073 7.2 23 11.5 101290 100
2009-04-09 07:57:03 51°15.57 2°51.047 8.4 281 11.5 101290 100
2009-04-09 07:57:08 51°15.578 2°51.021 8.9 21 11.5 101290 100
2009-04-09 07:57:13 51°15.585 2°50.996 8.3 284 11.5 101290 100
2009-04-09 07:57:18 51°15.592 2°50.97 7.4 238 11.5 101290 100
2009-04-09 07:57:22 51°15.597 2°50.949 8.4 284 11.5 101290 100
2009-04-09 07:57:28 51°15.605 2°50.918 7.9 20 11.5 101290 100
2009-04-09 07:57:34 51°15.611 2°50.885 9.8 281 11.5 101290 100
2009-04-09 07:57:38 51°15.615 2°50.864 9 234 11.5 101280 100
2009-04-09 07:57:42 51°15.618 2°50.842 8.3 281 11.5 101280 100
2009-04-09 07:57:48 51°15.622 2°50.809 9.3 24 11.5 101290 100
2009-04-09 07:57:54 51°15.626 2°50.776 7.9 283 11.5 101290 100
2009-04-09 07:57:58 51°15.627 2°50.753 8.1 235 11.5 101290 100
2009-04-09 07:58:02 51°15.63 2°50.731 9.6 284 11.5 101290 100
2009-04-09 07:58:08 51°15.632 2°50.697 9.6 25 11.5 101280 100
2009-04-09 07:58:13 51°15.634 2°50.669 8 282 11.5 101280 100
2009-04-09 07:58:18 51°15.636 2°50.641 8.3 25 11.5 101280 100
2009-04-09 07:58:22 51°15.637 2°50.618 8.3 281 11.5 101280 100
2009-04-09 07:58:28 51°15.639 2°50.584 10 21 11.5 101280 100
2009-04-09 07:58:33 51°15.641 2°50.556 8.3 281 11.5 101280 100
2009-04-09 07:58:38 51°15.642 2°50.528 9.8 23 11.5 101280 100
2009-04-09 07:58:42 51°15.644 2°50.505 7.9 283 11.5 101280 100
2009-04-09 07:58:48 51°15.645 2°50.472 10.3 35 11.5 101280 100
2009-04-09 07:58:53 51°15.647 2°50.443 10 284 11.5 101280 100
2009-04-09 07:58:58 51°15.648 2°50.415 10.7 23 11.5 101280 100
2009-04-09 07:59:02 51°15.65 2°50.393 10.3 287 11.5 101280 100
2009-04-09 07:59:08 51°15.651 2°50.359 10.3 35 11.5 101280 100
2009-04-09 07:59:13 51°15.653 2°50.331 10.2 281 11.5 101280 100
2009-04-09 07:59:18 51°15.654 2°50.302 7.8 36 11.4 101280 100
2009-04-09 07:59:23 51°15.656 2°50.274 8 279 11.4 101280 100
2009-04-09 07:59:28 51°15.657 2°50.246 10 27 11.5 101280 100
2009-04-09 07:59:33 51°15.658 2°50.218 9.9 280 11.5 101280 100
2009-04-09 07:59:38 51°15.66 2°50.189 8.3 23 11.4 101280 100
2009-04-09 07:59:43 51°15.661 2°50.161 10.1 279 11.4 101280 100
2009-04-09 07:59:48 51°15.663 2°50.133 10.4 24 11.4 101280 100
2009-04-09 07:59:53 51°15.664 2°50.105 8.3 279 11.4 101280 100
2009-04-09 07:59:58 51°15.665 2°50.076 8.5 21 11.4 101280 100
2009-04-09 08:00:03 51°15.667 2°50.048 8.6 282 11.4 101280 100
2009-04-09 08:00:08 51°15.668 2°50.02 10.2 21 11.4 101280 100
2009-04-09 08:00:13 51°15.67 2°49.992 10.1 280 11.4 101280 100
2009-04-09 08:00:18 51°15.672 2°49.964 8.5 26 11.4 101280 100
2009-04-09 08:00:23 51°15.673 2°49.936 10.1 282 11.4 101280 100
2009-04-09 08:00:27 51°15.674 2°49.914 10 34 11.4 101280 100
2009-04-09 08:00:33 51°15.676 2°49.88 8.4 281 11.4 101280 100
2009-04-09 08:00:38 51°15.677 2°49.852 8.6 22 11.4 101280 100
2009-04-09 08:00:43 51°15.679 2°49.824 9.9 281 11.4 101280 100
2009-04-09 08:00:48 51°15.681 2°49.796 8.4 234 11.4 101280 100
2009-04-09 08:00:53 51°15.682 2°49.768 9.6 285 11.4 101280 100
2009-04-09 08:00:58 51°15.684 2°49.74 9.8 21 11.4 101280 100
2009-04-09 08:01:03 51°15.685 2°49.713 9.7 286 11.4 101280 100
2009-04-09 08:01:08 51°15.687 2°49.685 7.7 24 11.4 101280 100
2009-04-09 08:01:13 51°15.688 2°49.657 10 286 11.4 101280 100
2009-04-09 08:01:18 51°15.69 2°49.629 9.8 26 11.4 101280 100
2009-04-09 08:01:22 51°15.691 2°49.607 9.7 280 11.4 101280 100
2009-04-09 08:01:28 51°15.692 2°49.574 8.6 20 11.4 101280 100
2009-04-09 08:01:33 51°15.694 2°49.546 7.9 284 11.4 101280 100
2009-04-09 08:01:38 51°15.695 2°49.518 9.6 31 11.4 101280 100
2009-04-09 08:01:42 51°15.696 2°49.496 9.9 281 11.4 101280 100
2009-04-09 08:01:48 51°15.698 2°49.463 8.2 22 11.4 101280 100
2009-04-09 08:01:53 51°15.699 2°49.435 7.9 280 11.4 101280 100
2009-04-09 08:01:58 51°15.701 2°49.407 8 33 11.4 101280 100
2009-04-09 08:02:02 51°15.702 2°49.385 8 281 11.4 101280 100
2009-04-09 08:02:08 51°15.704 2°49.352 10.3 23 11.4 101280 100
2009-04-09 08:02:13 51°15.705 2°49.324 9.8 282 11.4 101280 100
2009-04-09 08:02:18 51°15.706 2°49.296 7.9 33 11.4 101280 100
2009-04-09 08:02:22 51°15.707 2°49.274 8.1 280 11.4 101280 100
2009-04-09 08:02:28 51°15.709 2°49.241 9.6 20 11.4 101280 100
2009-04-09 08:02:33 51°15.711 2°49.213 8 279 11.4 101280 100
2009-04-09 08:02:38 51°15.712 2°49.186 8.6 22 11.4 101280 100
2009-04-09 08:02:42 51°15.713 2°49.163 7.9 281 11.4 101280 100
2009-04-09 08:02:48 51°15.715 2°49.13 8.4 36 11.4 101280 100
2009-04-09 08:02:53 51°15.716 2°49.102 11.1 287 11.4 101280 100
2009-04-09 08:02:58 51°15.717 2°49.075 7.9 20 11.4 101280 100
2009-04-09 08:03:02 51°15.719 2°49.053 10.1 282 11.4 101280 100
2009-04-09 08:03:08 51°15.72 2°49.019 10.1 233 11.3 101280 100
2009-04-09 08:03:13 51°15.722 2°48.992 7.9 282 11.3 101280 100
2009-04-09 08:03:18 51°15.723 2°48.964 9.7 24 11.3 101280 100
2009-04-09 08:03:23 51°15.725 2°48.936 10.3 285 11.3 101280 100
2009-04-09 08:03:28 51°15.726 2°48.908 8.5 34 11.3 101280 100
2009-04-09 08:03:33 51°15.727 2°48.88 8.4 282 11.3 101280 100
2009-04-09 08:03:38 51°15.729 2°48.852 10.7 23 11.3 101280 100
2009-04-09 08:03:43 51°15.73 2°48.825 10.3 285 11.3 101280 100
2009-04-09 08:03:48 51°15.731 2°48.797 10.3 19 11.3 101280 100
2009-04-09 08:03:53 51°15.732 2°48.769 8.6 286 11.3 101280 100
2009-04-09 08:03:58 51°15.734 2°48.741 8.6 22 11.3 101280 100
2009-04-09 08:04:03 51°15.735 2°48.713 8.5 281 11.3 101280 100
2009-04-09 08:04:07 51°15.736 2°48.69 10.7 23 11.3 101280 100
2009-04-09 08:04:13 51°15.737 2°48.656 8.7 282 11.3 101280 100
2009-04-09 08:04:18 51°15.739 2°48.628 10.7 20 11.3 101280 100
2009-04-09 08:04:23 51°15.74 2°48.6 10.5 285 11.3 101280 100
2009-04-09 08:04:27 51°15.741 2°48.578 8.6 24 11.3 101280 100
2009-04-09 08:04:34 51°15.743 2°48.538 10.9 283 11.3 101280 100
2009-04-09 08:04:38 51°15.744 2°48.516 10 26 11.3 101280 100
2009-04-09 08:04:43 51°15.745 2°48.488 10.3 280 11.3 101280 100
2009-04-09 08:04:48 51°15.746 2°48.459 10.5 34 11.3 101280 100
2009-04-09 08:04:54 51°15.748 2°48.426 8.5 284 11.3 101280 100
2009-04-09 08:04:58 51°15.749 2°48.403 10.2 20 11.3 101280 100
2009-04-09 08:05:03 51°15.75 2°48.375 8.2 281 11.3 101280 100
2009-04-09 08:05:08 51°15.751 2°48.347 8.8 233 11.3 101280 100
2009-04-09 08:05:13 51°15.753 2°48.318 10.7 282 11.3 101280 100
2009-04-09 08:05:18 51°15.754 2°48.29 10.1 35 11.2 101280 100
2009-04-09 08:05:22 51°15.755 2°48.267 9.1 283 11.2 101280 100
2009-04-09 08:05:28 51°15.756 2°48.233 11.1 22 11.2 101290 100
2009-04-09 08:05:32 51°15.758 2°48.21 10.2 283 11.2 101290 100
2009-04-09 08:05:38 51°15.759 2°48.176 8.4 25 11.2 101280 100
2009-04-09 08:05:42 51°15.76 2°48.153 10.4 282 11.2 101280 100
2009-04-09 08:05:48 51°15.762 2°48.119 8.4 24 11.2 101280 100
2009-04-09 08:05:53 51°15.763 2°48.091 8.3 284 11.2 101280 100
2009-04-09 08:05:58 51°15.764 2°48.062 8.7 24 11.2 101280 100
2009-04-09 08:06:02 51°15.765 2°48.039 8.4 281 11.2 101280 100
2009-04-09 08:06:08 51°15.766 2°48.005 9.8 23 11.2 101280 100
2009-04-09 08:06:13 51°15.768 2°47.976 8.6 285 11.2 101280 100
2009-04-09 08:06:18 51°15.769 2°47.947 8.8 234 11.2 101280 100
2009-04-09 08:06:22 51°15.77 2°47.924 11.1 285 11.2 101280 100
2009-04-09 08:06:28 51°15.771 2°47.89 8.5 38 11.2 101280 100
2009-04-09 08:06:33 51°15.773 2°47.861 10 280 11.2 101280 100
2009-04-09 08:06:38 51°15.774 2°47.833 10.3 32 11.2 101280 100
2009-04-09 08:06:42 51°15.775 2°47.81 8.6 281 11.2 101280 100
2009-04-09 08:06:48 51°15.777 2°47.775 8.3 32 11.2 101280 100
2009-04-09 08:06:53 51°15.778 2°47.747 8.4 285 11.2 101280 100
2009-04-09 08:06:58 51°15.779 2°47.718 10.5 25 11.2 101280 98
2009-04-09 08:07:03 51°15.78 2°47.689 8.5 282 11.2 101280 98
2009-04-09 08:07:08 51°15.782 2°47.661 8.4 34 11.2 101280 98
2009-04-09 08:07:13 51°15.783 2°47.632 8.6 281 11.2 101280 98
2009-04-09 08:07:18 51°15.785 2°47.603 10.1 24 11.2 101280 98
2009-04-09 08:07:22 51°15.786 2°47.58 10.1 280 11.2 101280 98
2009-04-09 08:07:28 51°15.787 2°47.546 8.3 37 11.2 101280 98
2009-04-09 08:07:33 51°15.789 2°47.517 8.2 280 11.2 101280 98
2009-04-09 08:07:38 51°15.789 2°47.489 10.4 20 11.2 101280 98
2009-04-09 08:07:42 51°15.79 2°47.466 8.6 279 11.2 101280 98
2009-04-09 08:07:48 51°15.791 2°47.431 10.8 36 11.1 101280 98
2009-04-09 08:07:53 51°15.792 2°47.402 10.5 285 11.1 101280 98
2009-04-09 08:07:58 51°15.793 2°47.373 10.8 21 11.1 101280 98
2009-04-09 08:08:03 51°15.793 2°47.345 8.8 279 11.1 101280 98
2009-04-09 08:08:08 51°15.794 2°47.316 11 36 11.1 101280 98
2009-04-09 08:08:13 51°15.795 2°47.287 8.6 286 11.1 101280 98
2009-04-09 08:08:18 51°15.796 2°47.258 11 36 11.1 101280 98
2009-04-09 08:08:23 51°15.797 2°47.229 8.8 285 11.1 101280 98
2009-04-09 08:08:28 51°15.798 2°47.201 8.7 20 11.1 101280 100
2009-04-09 08:08:33 51°15.798 2°47.172 11.1 283 11.1 101280 100
2009-04-09 08:08:38 51°15.8 2°47.143 10.9 22 11.1 101280 100
2009-04-09 08:08:43 51°15.801 2°47.115 11.3 284 11.1 101280 100
2009-04-09 08:08:47 51°15.802 2°47.092 10.7 26 11.1 101280 100
2009-04-09 08:08:53 51°15.803 2°47.057 10 286 11.1 101280 100
2009-04-09 08:08:58 51°15.804 2°47.029 10.3 20 11.1 101280 100
2009-04-09 08:09:03 51°15.806 2°47 10.2 284 11.1 101280 100
2009-04-09 08:09:07 51°15.807 2°46.977 10.2 24 11.1 101280 100
2009-04-09 08:09:14 51°15.809 2°46.937 10.4 281 11.1 101280 100
2009-04-09 08:09:18 51°15.811 2°46.914 8.9 23 11.2 101280 100
2009-04-09 08:09:23 51°15.813 2°46.886 11.7 284 11.2 101280 100
2009-04-09 08:09:28 51°15.814 2°46.857 10.7 32 11.1 101280 100
2009-04-09 08:09:34 51°15.816 2°46.823 8.9 282 11.1 101280 100
2009-04-09 08:09:38 51°15.817 2°46.8 10.6 21 11.1 101280 100
2009-04-09 08:09:43 51°15.818 2°46.772 10.8 280 11.1 101280 100
2009-04-09 08:09:48 51°15.82 2°46.743 8.6 33 11.1 101280 100
2009-04-09 08:09:53 51°15.821 2°46.715 8.7 281 11.1 101280 100
2009-04-09 08:09:58 51°15.823 2°46.687 11.2 25 11.2 101280 100
2009-04-09 08:10:02 51°15.824 2°46.664 10.4 280 11.2 101280 100
2009-04-09 08:10:08 51°15.826 2°46.63 8.9 20 11.1 101280 100
2009-04-09 08:10:12 51°15.828 2°46.607 10.5 285 11.1 101280 100
2009-04-09 08:10:18 51°15.83 2°46.573 8.5 21 11.2 101280 100
2009-04-09 08:10:22 51°15.831 2°46.55 10.8 281 11.2 101280 100
2009-04-09 08:10:28 51°15.834 2°46.516 10.7 21 11.2 101290 100
2009-04-09 08:10:33 51°15.835 2°46.488 8.9 280 11.2 101290 100
2009-04-09 08:10:38 51°15.837 2°46.46 10.7 34 11.1 101280 100
2009-04-09 08:10:42 51°15.838 2°46.437 8.3 280 11.1 101280 100
2009-04-09 08:10:48 51°15.841 2°46.403 10.8 24 11.1 101280 100
2009-04-09 08:10:53 51°15.842 2°46.374 11 278 11.1 101280 100
2009-04-09 08:10:58 51°15.844 2°46.346 10.6 35 11.1 101280 100
2009-04-09 08:11:02 51°15.845 2°46.323 10.6 280 11.1 101280 100
2009-04-09 08:11:08 51°15.847 2°46.289 9 233 11.1 101280 100
2009-04-09 08:11:13 51°15.849 2°46.261 10.4 279 11.1 101280 100
2009-04-09 08:11:18 51°15.85 2°46.232 10.5 22 11.1 101280 100
2009-04-09 08:11:22 51°15.851 2°46.21 8.4 279 11.1 101280 100
2009-04-09 08:11:28 51°15.853 2°46.176 8.6 25 11.1 101280 100
2009-04-09 08:11:33 51°15.855 2°46.147 8.6 285 11.1 101280 100
2009-04-09 08:11:38 51°15.856 2°46.119 10.4 24 11.1 101280 100
2009-04-09 08:11:43 51°15.858 2°46.091 8.2 281 11.1 101280 100
2009-04-09 08:11:48 51°15.86 2°46.063 10.3 234 11.1 101280 100
2009-04-09 08:11:53 51°15.862 2°46.035 10.3 283 11.1 101280 100
2009-04-09 08:11:58 51°15.863 2°46.007 8.5 26 11.1 101280 100
2009-04-09 08:12:02 51°15.865 2°45.984 10.8 281 11.1 101280 100
2009-04-09 08:12:08 51°15.866 2°45.951 10.4 33 11.1 101280 100
2009-04-09 08:12:13 51°15.868 2°45.923 8.2 280 11.1 101280 100
2009-04-09 08:12:18 51°15.87 2°45.894 10.9 24 11.1 101290 100
2009-04-09 08:12:23 51°15.871 2°45.867 10.9 286 11.1 101290 100
2009-04-09 08:12:28 51°15.873 2°45.839 10.5 35 11.1 101280 100
2009-04-09 08:12:33 51°15.874 2°45.811 10.7 281 11.1 101280 100
2009-04-09 08:12:38 51°15.876 2°45.783 10.8 234 11.1 101280 100
2009-04-09 08:12:43 51°15.878 2°45.755 8.7 280 11.1 101280 100
2009-04-09 08:12:48 51°15.879 2°45.727 10.8 37 11.1 101280 100
2009-04-09 08:12:53 51°15.881 2°45.699 8.5 280 11.1 101280 100
2009-04-09 08:12:58 51°15.883 2°45.671 11.1 28 11.1 101280 100
2009-04-09 08:13:03 51°15.884 2°45.643 8.7 286 11.1 101280 100
2009-04-09 08:13:08 51°15.886 2°45.615 10.7 24 11.1 101280 100
2009-04-09 08:13:13 51°15.887 2°45.588 8.6 283 11.1 101280 100
2009-04-09 08:13:18 51°15.889 2°45.56 10.7 35 11.1 101280 100
2009-04-09 08:13:23 51°15.89 2°45.532 10.4 285 11.1 101280 100
2009-04-09 08:13:27 51°15.891 2°45.51 8.8 20 11.2 101280 100
2009-04-09 08:13:33 51°15.893 2°45.477 11.4 285 11.2 101280 100
2009-04-09 08:13:38 51°15.894 2°45.449 8.7 23 11.2 101280 100
2009-04-09 08:13:43 51°15.895 2°45.421 8.9 280 11.2 101280 100
2009-04-09 08:13:47 51°15.896 2°45.399 8.7 235 11.2 101280 100
2009-04-09 08:13:54 51°15.898 2°45.36 10.6 283 11.2 101280 100
2009-04-09 08:13:58 51°15.899 2°45.338 10.4 20 11.2 101280 100
2009-04-09 08:14:03 51°15.9 2°45.31 10.7 281 11.2 101280 100
2009-04-09 08:14:08 51°15.902 2°45.283 8.7 235 11.2 101280 100
2009-04-09 08:14:14 51°15.903 2°45.249 8.3 281 11.2 101280 100
2009-04-09 08:14:18 51°15.904 2°45.227 9 25 11.2 101280 100
2009-04-09 08:14:22 51°15.905 2°45.205 10.9 284 11.2 101280 100
2009-04-09 08:14:28 51°15.906 2°45.172 10.9 35 11.2 101280 100
2009-04-09 08:14:33 51°15.906 2°45.144 10.1 284 11.2 101280 100
2009-04-09 08:14:38 51°15.906 2°45.116 10.6 22 11.2 101280 100
2009-04-09 08:14:42 51°15.907 2°45.094 10.2 284 11.2 101280 100
2009-04-09 08:14:48 51°15.908 2°45.06 8.5 26 11.2 101280 100
2009-04-09 08:14:52 51°15.908 2°45.038 10.8 283 11.2 101280 100
2009-04-09 08:14:58 51°15.91 2°45.005 10.7 33 11.2 101280 100
2009-04-09 08:15:02 51°15.911 2°44.983 11.1 281 11.2 101280 100
2009-04-09 08:15:08 51°15.912 2°44.949 9 24 11.1 101280 100
2009-04-09 08:15:13 51°15.913 2°44.922 8.8 282 11.1 101280 100
2009-04-09 08:15:18 51°15.914 2°44.894 8.6 33 11.2 101280 100
2009-04-09 08:15:22 51°15.915 2°44.872 10.4 284 11.2 101280 100
2009-04-09 08:15:28 51°15.916 2°44.838 10.9 22 11.2 101280 100
2009-04-09 08:15:33 51°15.917 2°44.811 10.5 279 11.2 101280 100
2009-04-09 08:15:38 51°15.918 2°44.783 11 235 11.2 101280 100
2009-04-09 08:15:42 51°15.919 2°44.76 10.6 285 11.2 101280 100
2009-04-09 08:15:48 51°15.92 2°44.727 10.5 24 11.2 101290 100
2009-04-09 08:15:53 51°15.921 2°44.699 10.8 280 11.2 101290 100
2009-04-09 08:15:58 51°15.922 2°44.671 8.7 26 11.2 101280 100
2009-04-09 08:16:02 51°15.923 2°44.649 10.3 282 11.2 101280 100
2009-04-09 08:16:08 51°15.924 2°44.615 9.8 32 11.2 101280 100
2009-04-09 08:16:13 51°15.925 2°44.587 9.8 285 11.2 101280 100
2009-04-09 08:16:18 51°15.927 2°44.56 7.6 18 11.1 101280 100
2009-04-09 08:16:23 51°15.929 2°44.532 7.5 281 11.1 101280 100
2009-04-09 08:16:28 51°15.933 2°44.506 8.9 31 11.2 101280 100
2009-04-09 08:16:33 51°15.939 2°44.481 7.3 280 11.2 101280 100
2009-04-09 08:16:38 51°15.943 2°44.455 6.4 25 11.1 101290 100
2009-04-09 08:16:43 51°15.95 2°44.431 8.4 282 11.1 101290 100
2009-04-09 08:16:48 51°15.956 2°44.406 8 243 11.1 101290 100
2009-04-09 08:16:53 51°15.963 2°44.382 5.7 286 11.1 101290 100
2009-04-09 08:16:58 51°15.972 2°44.36 7.3 21 11.2 101280 100
2009-04-09 08:17:03 51°15.98 2°44.337 5.3 280 11.2 101280 100
2009-04-09 08:17:07 51°15.988 2°44.32 7.3 19 11.1 101280 100
2009-04-09 08:17:13 51°15.999 2°44.294 5.6 284 11.1 101280 100
2009-04-09 08:17:18 51°16.009 2°44.273 5.3 244 11.1 101290 100
2009-04-09 08:17:23 51°16.019 2°44.253 5.4 284 11.1 101290 100
2009-04-09 08:17:27 51°16.027 2°44.236 5.3 23 11.1 101290 100
2009-04-09 08:17:33 51°16.039 2°44.212 5.9 281 11.1 101290 100
2009-04-09 08:17:38 51°16.05 2°44.193 6 245 11.1 101290 100
2009-04-09 08:17:43 51°16.061 2°44.175 5 279 11.1 101290 100
2009-04-09 08:17:48 51°16.072 2°44.156 4.8 23 11.1 101290 100
2009-04-09 08:17:53 51°16.084 2°44.139 5.8 285 11.1 101290 100
2009-04-09 08:17:58 51°16.096 2°44.121 5.4 247 11.1 101290 100
2009-04-09 08:18:03 51°16.108 2°44.104 4.5 284 11.1 101290 100
2009-04-09 08:18:08 51°16.119 2°44.087 4.8 246 11.1 101290 100
2009-04-09 08:18:14 51°16.134 2°44.067 3.9 281 11.1 101290 100
2009-04-09 08:18:18 51°16.143 2°44.053 5.2 22 11.1 101290 100
2009-04-09 08:18:22 51°16.153 2°44.04 3.9 280 11.1 101290 100
2009-04-09 08:18:28 51°16.168 2°44.02 4.4 247 11.1 101290 100
2009-04-09 08:18:34 51°16.182 2°44 4.3 285 11.1 101290 100
2009-04-09 08:18:38 51°16.192 2°43.986 5.2 245 11.1 101290 100
2009-04-09 08:18:42 51°16.201 2°43.973 4 280 11.1 101290 100
2009-04-09 08:18:48 51°16.216 2°43.953 3.9 22 11.1 101290 100
2009-04-09 08:18:53 51°16.228 2°43.936 4.1 282 11.1 101290 100
2009-04-09 08:18:58 51°16.24 2°43.919 5.7 21 11.1 101290 100
2009-04-09 08:19:02 51°16.25 2°43.905 5.3 285 11.1 101290 100
2009-04-09 08:19:08 51°16.265 2°43.885 5.1 23 11.1 101290 100
2009-04-09 08:19:13 51°16.277 2°43.868 4.4 281 11.1 101290 100
2009-04-09 08:19:18 51°16.289 2°43.851 4 246 11.1 101290 100
2009-04-09 08:19:22 51°16.299 2°43.837 4.1 286 11.1 101290 100
2009-04-09 08:19:28 51°16.313 2°43.817 4.3 247 11.1 101290 100
2009-04-09 08:19:33 51°16.325 2°43.8 4.3 284 11.1 101290 100
2009-04-09 08:19:38 51°16.337 2°43.782 4.6 243 11.1 101290 100
2009-04-09 08:19:42 51°16.347 2°43.769 5.1 279 11.1 101290 100
2009-04-09 08:19:48 51°16.362 2°43.749 4.5 25 11.1 101290 100
2009-04-09 08:19:53 51°16.375 2°43.733 3.9 284 11.1 101290 100
2009-04-09 08:19:58 51°16.387 2°43.716 3.6 244 11.1 101290 100
2009-04-09 08:20:03 51°16.399 2°43.7 4.4 280 11.1 101290 100
2009-04-09 08:20:08 51°16.411 2°43.682 5.4 25 11.1 101290 100
2009-04-09 08:20:13 51°16.424 2°43.666 5.3 280 11.1 101290 100
2009-04-09 08:20:18 51°16.436 2°43.649 5 246 11.1 101290 100
2009-04-09 08:20:23 51°16.448 2°43.632 4.7 285 11.1 101290 100
2009-04-09 08:20:28 51°16.46 2°43.615 5 25 11.1 101290 100
2009-04-09 08:20:33 51°16.473 2°43.598 4.9 282 11.1 101290 100
2009-04-09 08:20:38 51°16.485 2°43.582 4.9 24 11.1 101290 100
2009-04-09 08:20:43 51°16.497 2°43.565 5 286 11.1 101290 100
2009-04-09 08:20:48 51°16.51 2°43.548 5 22 11.1 101290 100
2009-04-09 08:20:54 51°16.524 2°43.528 5.3 280 11.1 101290 100
2009-04-09 08:20:58 51°16.534 2°43.514 4.3 22 11.1 101290 100
2009-04-09 08:21:03 51°16.547 2°43.498 5.2 285 11.1 101290 100
2009-04-09 08:21:07 51°16.556 2°43.484 5.6 249 11.1 101290 100
2009-04-09 08:21:14 51°16.574 2°43.46 5.3 285 11.1 101290 100
2009-04-09 08:21:18 51°16.583 2°43.446 5.6 25 11.1 101290 100
2009-04-09 08:21:23 51°16.595 2°43.428 4.5 281 11.1 101290 100
2009-04-09 08:21:27 51°16.604 2°43.414 4.6 245 11.1 101290 100
2009-04-09 08:21:33 51°16.618 2°43.391 4.5 283 11.1 101290 100
2009-04-09 08:21:38 51°16.63 2°43.373 4.6 24 11.1 101290 100
2009-04-09 08:21:43 51°16.641 2°43.354 4.3 281 11.1 101290 100
2009-04-09 08:21:48 51°16.653 2°43.337 5.7 247 11.1 101290 100
2009-04-09 08:21:53 51°16.665 2°43.318 5.3 284 11.1 101290 100
2009-04-09 08:21:58 51°16.677 2°43.3 5.1 20 11.1 101290 100
2009-04-09 08:22:03 51°16.689 2°43.282 5.5 280 11.1 101290 100
2009-04-09 08:22:08 51°16.701 2°43.263 5.8 20 11.1 101290 100
2009-04-09 08:22:14 51°16.715 2°43.241 4.7 284 11.1 101290 100
2009-04-09 08:22:18 51°16.724 2°43.227 4.7 25 11.1 101290 100
2009-04-09 08:22:22 51°16.734 2°43.212 5.8 280 11.1 101290 100
2009-04-09 08:22:28 51°16.748 2°43.19 5.8 24 11.1 101290 100
2009-04-09 08:22:34 51°16.762 2°43.168 4.5 280 11.1 101290 100
2009-04-09 08:22:38 51°16.771 2°43.152 5.8 243 11.1 101290 100
2009-04-09 08:22:42 51°16.781 2°43.137 6.6 285 11.1 101290 100
2009-04-09 08:22:48 51°16.793 2°43.112 5.6 24 11.1 101290 100
2009-04-09 08:22:53 51°16.805 2°43.093 6.5 280 11.1 101290 100
2009-04-09 08:22:58 51°16.815 2°43.072 6.6 243 11.1 101290 100
2009-04-09 08:23:02 51°16.824 2°43.055 6.5 281 11.1 101290 100
2009-04-09 08:23:08 51°16.836 2°43.029 5.6 21 11.1 101290 100
2009-04-09 08:23:13 51°16.846 2°43.008 5.9 283 11.1 101290 100
2009-04-09 08:23:18 51°16.855 2°42.985 5.8 21 11 101290 100
2009-04-09 08:23:22 51°16.863 2°42.967 5.7 285 11 101290 100
2009-04-09 08:23:28 51°16.874 2°42.94 7.3 21 11 101290 100
2009-04-09 08:23:33 51°16.884 2°42.917 5.7 286 11 101290 100
2009-04-09 08:23:38 51°16.894 2°42.895 7.1 26 11 101290 100
2009-04-09 08:23:42 51°16.901 2°42.876 6.7 281 11 101290 100
2009-04-09 08:23:48 51°16.912 2°42.849 6.1 26 11 101290 100
2009-04-09 08:23:53 51°16.921 2°42.825 5.7 283 11 101290 100
2009-04-09 08:23:58 51°16.93 2°42.802 6.1 240 11 101290 100
2009-04-09 08:24:03 51°16.938 2°42.779 7.1 280 11 101290 100
2009-04-09 08:24:08 51°16.947 2°42.756 5.9 240 11 101290 100
2009-04-09 08:24:13 51°16.956 2°42.732 7.5 287 11 101290 100
2009-04-09 08:24:18 51°16.965 2°42.708 6.5 241 11 101290 100
2009-04-09 08:24:23 51°16.973 2°42.683 6.1 281 11 101290 100
2009-04-09 08:24:28 51°16.981 2°42.659 7.5 23 11 101290 100
2009-04-09 08:24:33 51°16.989 2°42.634 7.7 280 11 101290 100
2009-04-09 08:24:38 51°16.997 2°42.609 7.9 22 11 101290 100
2009-04-09 08:24:43 51°17.004 2°42.585 6.7 282 11 101290 100
2009-04-09 08:24:48 51°17.011 2°42.559 6.3 26 11 101290 100
2009-04-09 08:24:53 51°17.019 2°42.535 6.4 283 11 101290 100
2009-04-09 08:24:58 51°17.027 2°42.509 6.4 21 11 101280 100
2009-04-09 08:25:03 51°17.034 2°42.484 6.2 280 11 101280 100
2009-04-09 08:25:07 51°17.04 2°42.464 6.5 24 11 101290 100
2009-04-09 08:25:14 51°17.051 2°42.428 6.5 279 11 101290 100
2009-04-09 08:25:18 51°17.057 2°42.407 6.2 22 11 101290 100
2009-04-09 08:25:23 51°17.064 2°42.382 6.5 283 11 101290 100
2009-04-09 08:25:28 51°17.072 2°42.356 6.3 25 11 101290 100
2009-04-09 08:25:34 51°17.081 2°42.326 6.6 281 11 101290 100
2009-04-09 08:25:38 51°17.087 2°42.305 7.4 26 11 101280 100
2009-04-09 08:25:43 51°17.093 2°42.278 6.8 287 11 101280 100
2009-04-09 08:25:48 51°17.1 2°42.252 7.5 237 11 101290 100
2009-04-09 08:25:54 51°17.106 2°42.218 7.3 284 11 101290 100
2009-04-09 08:25:58 51°17.11 2°42.197 9 19 11 101280 100
2009-04-09 08:26:02 51°17.115 2°42.175 9.2 279 11 101280 100
2009-04-09 08:26:08 51°17.12 2°42.142 7.5 23 11 101290 100
2009-04-09 08:26:13 51°17.125 2°42.115 9.9 279 11 101290 100
2009-04-09 08:26:18 51°17.129 2°42.087 7.2 27 11 101280 100
2009-04-09 08:26:22 51°17.133 2°42.065 7.9 283 11 101280 100
2009-04-09 08:26:28 51°17.137 2°42.031 8.4 24 11 101280 100
2009-04-09 08:26:33 51°17.14 2°42.003 8 279 11 101280 100
2009-04-09 08:26:38 51°17.144 2°41.974 9.5 234 11 101280 100
2009-04-09 08:26:42 51°17.147 2°41.951 9.4 283 11 101280 100
2009-04-09 08:26:48 51°17.151 2°41.917 7.9 20 11 101280 100
2009-04-09 08:26:53 51°17.154 2°41.889 8.1 279 11 101280 100
2009-04-09 08:26:58 51°17.157 2°41.861 7.9 32 10.9 101280 100
2009-04-09 08:27:02 51°17.159 2°41.838 8 281 10.9 101280 100
2009-04-09 08:27:08 51°17.163 2°41.803 9.3 21 11 101280 100
2009-04-09 08:27:13 51°17.166 2°41.775 9.8 278 11 101280 100
2009-04-09 08:27:18 51°17.169 2°41.746 8.2 28 11 101280 100
2009-04-09 08:27:22 51°17.17 2°41.723 9.5 281 11 101280 100
2009-04-09 08:27:28 51°17.173 2°41.688 8.3 25 11 101280 100
2009-04-09 08:27:33 51°17.175 2°41.659 8.1 281 11 101280 100
2009-04-09 08:27:38 51°17.177 2°41.63 8.3 25 11 101280 100
2009-04-09 08:27:42 51°17.178 2°41.606 8.1 284 11 101280 100
2009-04-09 08:27:48 51°17.18 2°41.571 10.4 35 11 101270 100
2009-04-09 08:27:53 51°17.181 2°41.542 8.3 282 11 101270 100
2009-04-09 08:27:58 51°17.182 2°41.512 10.2 26 11 101280 100
2009-04-09 08:28:03 51°17.184 2°41.483 8.3 284 11 101280 100
2009-04-09 08:28:08 51°17.185 2°41.453 10.2 35 10.9 101280 100
2009-04-09 08:28:13 51°17.187 2°41.424 10.2 285 10.9 101280 100
2009-04-09 08:28:18 51°17.188 2°41.394 10.2 25 10.9 101280 100
2009-04-09 08:28:23 51°17.19 2°41.365 10.4 282 10.9 101280 100
2009-04-09 08:28:28 51°17.191 2°41.336 8.1 28 10.9 101280 100
2009-04-09 08:28:33 51°17.192 2°41.306 8.1 281 10.9 101280 100
2009-04-09 08:28:38 51°17.194 2°41.276 10.4 21 10.9 101280 100
2009-04-09 08:28:43 51°17.195 2°41.247 9.9 281 10.9 101280 100
2009-04-09 08:28:48 51°17.197 2°41.217 10.5 24 10.9 101280 100
2009-04-09 08:28:53 51°17.198 2°41.188 10.3 285 10.9 101280 100
2009-04-09 08:28:58 51°17.2 2°41.158 8.5 20 10.9 101270 100
2009-04-09 08:29:03 51°17.201 2°41.128 8.8 283 10.9 101270 100
2009-04-09 08:29:07 51°17.202 2°41.105 10.7 19 10.9 101280 100
2009-04-09 08:29:13 51°17.204 2°41.069 8.2 280 10.9 101280 100
2009-04-09 08:29:18 51°17.206 2°41.04 8.7 26 10.9 101280 100
2009-04-09 08:29:23 51°17.207 2°41.01 8.8 279 10.9 101280 100
2009-04-09 08:29:28 51°17.209 2°40.98 8.4 22 10.9 101280 100
2009-04-09 08:29:34 51°17.211 2°40.945 8.5 282 10.9 101280 100
2009-04-09 08:29:38 51°17.212 2°40.921 8.4 24 10.9 101280 100
2009-04-09 08:29:43 51°17.213 2°40.891 8.6 280 10.9 101280 100
2009-04-09 08:29:48 51°17.215 2°40.862 8.6 25 10.9 101280 100
2009-04-09 08:29:54 51°17.216 2°40.826 10.4 280 10.9 101280 100
2009-04-09 08:29:58 51°17.217 2°40.802 8.4 27 10.9 101270 100
2009-04-09 08:30:02 51°17.218 2°40.778 8.5 283 10.9 101270 100
2009-04-09 08:30:08 51°17.219 2°40.743 8.7 19 10.9 101280 100
2009-04-09 08:30:14 51°17.221 2°40.707 10.4 285 10.9 101280 100
2009-04-09 08:30:18 51°17.221 2°40.683 8.4 21 10.9 101280 100
2009-04-09 08:30:22 51°17.223 2°40.659 8.8 283 10.9 101280 100
2009-04-09 08:30:28 51°17.225 2°40.624 10.6 26 10.9 101280 100
2009-04-09 08:30:33 51°17.226 2°40.594 10.3 281 10.9 101280 100
2009-04-09 08:30:38 51°17.228 2°40.564 8.6 21 10.9 101280 100
2009-04-09 08:30:42 51°17.229 2°40.54 8.6 281 10.9 101280 100
2009-04-09 08:30:48 51°17.231 2°40.504 10.3 22 10.9 101280 100
2009-04-09 08:30:53 51°17.232 2°40.475 10.2 278 10.9 101280 100
2009-04-09 08:30:58 51°17.234 2°40.445 8.3 37 10.9 101280 100
2009-04-09 08:31:02 51°17.235 2°40.421 8.5 281 10.9 101280 100
2009-04-09 08:31:08 51°17.237 2°40.385 9.8 22 10.9 101280 100
2009-04-09 08:31:13 51°17.238 2°40.355 8.6 285 10.9 101280 100
2009-04-09 08:31:18 51°17.24 2°40.326 8.6 35 10.9 101280 100
2009-04-09 08:31:22 51°17.241 2°40.302 8.5 281 10.9 101280 100
2009-04-09 08:31:28 51°17.243 2°40.266 8.3 22 10.9 101280 100
2009-04-09 08:31:33 51°17.244 2°40.236 10.1 281 10.9 101280 100
2009-04-09 08:31:38 51°17.246 2°40.207 8.3 27 10.9 101270 100
2009-04-09 08:31:43 51°17.248 2°40.177 10.6 279 10.9 101270 100
2009-04-09 08:31:48 51°17.25 2°40.147 8.2 22 10.9 101280 100
2009-04-09 08:31:53 51°17.251 2°40.117 10.2 283 10.9 101280 100
2009-04-09 08:31:58 51°17.253 2°40.088 10.5 25 10.9 101270 100
2009-04-09 08:32:03 51°17.255 2°40.058 8.2 281 10.9 101270 100
2009-04-09 08:32:08 51°17.256 2°40.028 10.4 35 10.9 101280 100
2009-04-09 08:32:14 51°17.258 2°39.993 10.5 284 10.9 101280 100
2009-04-09 08:32:18 51°17.259 2°39.969 10.4 22 10.9 101270 100
2009-04-09 08:32:23 51°17.261 2°39.939 8.3 285 10.9 101270 100
2009-04-09 08:32:28 51°17.263 2°39.909 8.5 235 10.9 101270 100
2009-04-09 08:32:34 51°17.265 2°39.874 8.4 283 10.9 101270 100
2009-04-09 08:32:38 51°17.266 2°39.85 9.9 26 10.9 101270 100
2009-04-09 08:32:43 51°17.268 2°39.821 8 281 10.9 101270 100
2009-04-09 08:32:47 51°17.27 2°39.797 10.1 23 10.9 101270 100
2009-04-09 08:32:53 51°17.272 2°39.761 8.1 280 10.9 101270 100
2009-04-09 08:32:58 51°17.273 2°39.732 8.2 19 10.9 101280 100
2009-04-09 08:33:03 51°17.275 2°39.702 9.5 282 10.9 101280 100
2009-04-09 08:33:07 51°17.276 2°39.678 8.5 28 10.9 101270 100
2009-04-09 08:33:13 51°17.278 2°39.642 8.2 286 10.9 101270 100
2009-04-09 08:33:18 51°17.28 2°39.613 10.1 20 10.9 101270 100
2009-04-09 08:33:23 51°17.282 2°39.583 8.3 280 10.9 101270 100
2009-04-09 08:33:28 51°17.284 2°39.554 8.2 26 10.9 101280 100
2009-04-09 08:33:34 51°17.286 2°39.519 9.9 283 10.9 101280 100
2009-04-09 08:33:38 51°17.287 2°39.495 8.2 26 10.9 101280 100
2009-04-09 08:33:43 51°17.288 2°39.466 10 281 10.9 101280 100
2009-04-09 08:33:48 51°17.289 2°39.436 8 24 10.9 101280 100
2009-04-09 08:33:53 51°17.291 2°39.407 10 282 10.9 101280 100
2009-04-09 08:33:58 51°17.292 2°39.378 8.3 25 10.9 101280 100
2009-04-09 08:34:03 51°17.293 2°39.349 8.2 283 10.9 101280 100
2009-04-09 08:34:07 51°17.294 2°39.325 8.5 23 10.9 101270 100
2009-04-09 08:34:14 51°17.296 2°39.284 9.6 279 10.9 101270 100
2009-04-09 08:34:18 51°17.297 2°39.261 9.7 25 10.9 101280 100
2009-04-09 08:34:23 51°17.298 2°39.232 8.2 279 10.9 101280 100
2009-04-09 08:34:28 51°17.3 2°39.202 9.6 232 10.9 101270 100
2009-04-09 08:34:34 51°17.301 2°39.167 8 285 10.9 101270 100
2009-04-09 08:34:38 51°17.303 2°39.143 9.9 26 10.9 101280 100
2009-04-09 08:34:43 51°17.304 2°39.114 8.1 283 10.9 101280 100
2009-04-09 08:34:48 51°17.306 2°39.084 10 38 10.9 101270 100
2009-04-09 08:34:54 51°17.308 2°39.049 10 285 10.9 101270 100
2009-04-09 08:34:58 51°17.309 2°39.025 9.7 25 10.9 101280 100
2009-04-09 08:35:02 51°17.31 2°39.001 7.8 280 10.9 101280 100
2009-04-09 08:35:08 51°17.312 2°38.966 9.9 25 10.9 101280 100
2009-04-09 08:35:13 51°17.313 2°38.936 8 283 10.9 101280 100
2009-04-09 08:35:18 51°17.315 2°38.906 10.1 26 10.9 101280 100
2009-04-09 08:35:22 51°17.316 2°38.882 8 282 10.9 101280 100
2009-04-09 08:35:28 51°17.318 2°38.847 9.8 26 10.9 101270 100
2009-04-09 08:35:33 51°17.32 2°38.817 8.8 279 10.9 101270 100
2009-04-09 08:35:38 51°17.322 2°38.787 10 36 10.8 101280 100
2009-04-09 08:35:42 51°17.323 2°38.763 10 285 10.8 101280 100
2009-04-09 08:35:48 51°17.325 2°38.728 7.8 19 10.8 101280 100
2009-04-09 08:35:53 51°17.327 2°38.698 8 279 10.8 101280 100
2009-04-09 08:35:58 51°17.329 2°38.668 9.6 32 10.8 101280 100
2009-04-09 08:36:02 51°17.33 2°38.644 9.9 284 10.8 101280 100
2009-04-09 08:36:08 51°17.332 2°38.608 8 23 10.8 101270 100
2009-04-09 08:36:13 51°17.333 2°38.578 9.7 285 10.8 101270 100
2009-04-09 08:36:18 51°17.334 2°38.548 9.7 22 10.8 101270 100
2009-04-09 08:36:22 51°17.335 2°38.524 10.3 285 10.8 101270 100
2009-04-09 08:36:28 51°17.336 2°38.488 10.1 37 10.8 101280 100
2009-04-09 08:36:33 51°17.337 2°38.458 9.7 280 10.8 101280 100
2009-04-09 08:36:38 51°17.339 2°38.428 10.5 27 10.8 101280 100
2009-04-09 08:36:43 51°17.34 2°38.398 9.6 280 10.8 101280 100
2009-04-09 08:36:48 51°17.342 2°38.368 10.6 19 10.8 101280 100
2009-04-09 08:36:53 51°17.344 2°38.338 10.3 285 10.8 101280 100
2009-04-09 08:36:58 51°17.346 2°38.308 10 25 10.8 101280 100
2009-04-09 08:37:03 51°17.347 2°38.278 10 282 10.8 101280 100
2009-04-09 08:37:08 51°17.349 2°38.248 7.8 37 10.8 101280 100
2009-04-09 08:37:13 51°17.351 2°38.218 8.5 282 10.8 101280 100
2009-04-09 08:37:18 51°17.352 2°38.187 9.9 24 10.8 101280 100
2009-04-09 08:37:23 51°17.353 2°38.157 10 286 10.8 101280 100
2009-04-09 08:37:28 51°17.354 2°38.127 9.9 19 10.8 101280 100
2009-04-09 08:37:33 51°17.356 2°38.097 10.3 280 10.8 101280 100
2009-04-09 08:37:38 51°17.357 2°38.067 8 23 10.8 101270 100
2009-04-09 08:37:43 51°17.358 2°38.037 7.6 280 10.8 101270 100
2009-04-09 08:37:47 51°17.359 2°38.013 9.9 20 10.8 101270 100
2009-04-09 08:37:53 51°17.361 2°37.977 9.7 279 10.8 101270 100
2009-04-09 08:37:58 51°17.363 2°37.947 9.5 21 10.8 101280 100
2009-04-09 08:38:03 51°17.365 2°37.917 9.7 284 10.8 101280 100
2009-04-09 08:38:07 51°17.366 2°37.893 9.7 22 10.8 101280 100
2009-04-09 08:38:13 51°17.368 2°37.857 9.4 283 10.8 101280 100
2009-04-09 08:38:18 51°17.37 2°37.828 7.8 24 10.8 101280 100
2009-04-09 08:38:23 51°17.372 2°37.798 9.8 281 10.8 101280 100
2009-04-09 08:38:28 51°17.374 2°37.768 9.4 26 10.8 101280 100
2009-04-09 08:38:34 51°17.376 2°37.733 7.9 280 10.8 101280 100
2009-04-09 08:38:38 51°17.377 2°37.709 7.7 27 10.8 101280 100
2009-04-09 08:38:43 51°17.379 2°37.679 9.6 282 10.8 101280 100
2009-04-09 08:38:47 51°17.38 2°37.656 9.7 26 10.8 101280 100
2009-04-09 08:38:54 51°17.382 2°37.614 9.9 283 10.8 101280 100
2009-04-09 08:38:58 51°17.384 2°37.59 9.9 25 10.8 101280 100
2009-04-09 08:39:03 51°17.385 2°37.561 9.6 286 10.8 101280 100
2009-04-09 08:39:07 51°17.387 2°37.537 7.7 35 10.8 101280 100
2009-04-09 08:39:14 51°17.389 2°37.496 7.8 280 10.8 101280 100
2009-04-09 08:39:18 51°17.39 2°37.472 7.6 27 10.8 101280 100
2009-04-09 08:39:23 51°17.391 2°37.443 9.5 282 10.8 101280 100
2009-04-09 08:39:28 51°17.393 2°37.413 9.6 35 10.8 101280 100
2009-04-09 08:39:33 51°17.394 2°37.383 9.2 285 10.8 101280 100
2009-04-09 08:39:38 51°17.395 2°37.354 9.8 21 10.8 101280 100
2009-04-09 08:39:43 51°17.397 2°37.324 9.9 283 10.8 101280 100
2009-04-09 08:39:48 51°17.397 2°37.294 7.4 26 10.8 101280 100
2009-04-09 08:39:53 51°17.399 2°37.265 9.9 282 10.8 101280 100
2009-04-09 08:39:58 51°17.4 2°37.235 7.7 20 10.7 101280 100
2009-04-09 08:40:02 51°17.401 2°37.211 9.3 284 10.7 101280 100
2009-04-09 08:40:08 51°17.403 2°37.175 10 23 10.7 101280 100
2009-04-09 08:40:14 51°17.404 2°37.14 7.9 281 10.7 101280 100
2009-04-09 08:40:18 51°17.405 2°37.116 7.2 24 10.8 101280 100
2009-04-09 08:40:22 51°17.406 2°37.092 9.1 278 10.8 101280 100
2009-04-09 08:40:28 51°17.408 2°37.056 9.6 20 10.7 101280 100
2009-04-09 08:40:33 51°17.409 2°37.026 9.2 285 10.7 101280 100
2009-04-09 08:40:38 51°17.41 2°36.996 7.9 37 10.7 101280 100
2009-04-09 08:40:42 51°17.411 2°36.972 9.6 287 10.7 101280 100
2009-04-09 08:40:48 51°17.412 2°36.936 7.8 21 10.8 101280 100
2009-04-09 08:40:53 51°17.412 2°36.906 8.2 279 10.8 101280 100
2009-04-09 08:40:58 51°17.412 2°36.876 10 24 10.7 101280 100
2009-04-09 08:41:02 51°17.413 2°36.852 10.2 284 10.7 101280 100
2009-04-09 08:41:08 51°17.413 2°36.816 10 26 10.7 101280 100
2009-04-09 08:41:13 51°17.413 2°36.786 8.1 280 10.7 101280 100
2009-04-09 08:41:18 51°17.412 2°36.756 8.1 24 10.7 101280 100
2009-04-09 08:41:22 51°17.412 2°36.731 10.2 282 10.7 101280 100
2009-04-09 08:41:28 51°17.411 2°36.695 9.8 26 10.7 101280 100
2009-04-09 08:41:33 51°17.411 2°36.664 10.4 282 10.7 101280 100
2009-04-09 08:41:38 51°17.41 2°36.634 8.4 24 10.8 101280 100
2009-04-09 08:41:43 51°17.41 2°36.604 8.4 283 10.8 101280 100
2009-04-09 08:41:48 51°17.409 2°36.573 7.9 33 10.8 101270 100
2009-04-09 08:41:54 51°17.409 2°36.537 10 284 10.8 101270 100
2009-04-09 08:41:58 51°17.409 2°36.513 10.2 19 10.8 101280 100
2009-04-09 08:42:03 51°17.409 2°36.483 9.8 280 10.8 101280 100
2009-04-09 08:42:08 51°17.408 2°36.452 10.5 27 10.8 101280 100
2009-04-09 08:42:13 51°17.408 2°36.422 10.2 280 10.8 101280 100
2009-04-09 08:42:18 51°17.408 2°36.392 10.1 23 10.8 101270 100
2009-04-09 08:42:23 51°17.407 2°36.362 8.7 279 10.8 101270 100
2009-04-09 08:42:28 51°17.407 2°36.331 10 25 10.8 101270 100
2009-04-09 08:42:33 51°17.407 2°36.301 10 283 10.8 101270 100
2009-04-09 08:42:38 51°17.406 2°36.271 8.1 27 10.8 101270 100
2009-04-09 08:42:43 51°17.406 2°36.241 7.6 280 10.8 101270 100
2009-04-09 08:42:47 51°17.406 2°36.217 9.8 21 10.8 101270 100
2009-04-09 08:42:53 51°17.407 2°36.181 10.4 280 10.8 101270 100
2009-04-09 08:42:58 51°17.407 2°36.151 7.9 26 10.8 101270 100
2009-04-09 08:43:03 51°17.408 2°36.121 9.8 284 10.8 101270 100
2009-04-09 08:43:09 51°17.408 2°36.085 10.3 23 10.8 101280 100
2009-04-09 08:43:14 51°17.409 2°36.055 7.9 286 10.8 101280 100
2009-04-09 08:43:18 51°17.409 2°36.032 7.8 26 10.8 101270 100
2009-04-09 08:43:23 51°17.41 2°36.002 8.2 280 10.8 101270 100
2009-04-09 08:43:28 51°17.41 2°35.972 9.4 19 10.8 101270 100
2009-04-09 08:43:34 51°17.411 2°35.937 10.1 284 10.8 101270 100
2009-04-09 08:43:38 51°17.411 2°35.913 9.6 24 10.8 101270 100
2009-04-09 08:43:42 51°17.412 2°35.889 9.7 282 10.8 101270 100
2009-04-09 08:43:48 51°17.413 2°35.854 9.5 22 10.8 101270 100
2009-04-09 08:43:54 51°17.414 2°35.819 7.7 285 10.8 101270 100
2009-04-09 08:43:58 51°17.415 2°35.795 7.9 27 10.8 101280 100
2009-04-09 08:44:02 51°17.415 2°35.77 7.6 286 10.8 101280 100
2009-04-09 08:44:08 51°17.416 2°35.735 9.4 20 10.8 101270 100
2009-04-09 08:44:13 51°17.418 2°35.706 9.3 283 10.8 101270 100
2009-04-09 08:44:18 51°17.419 2°35.676 9.3 24 10.8 101280 100
2009-04-09 08:44:22 51°17.421 2°35.654 7.8 282 10.8 101280 100
2009-04-09 08:44:28 51°17.424 2°35.619 7.3 22 10.8 101280 100
2009-04-09 08:44:33 51°17.426 2°35.591 9.3 282 10.8 101280 100
2009-04-09 08:44:38 51°17.427 2°35.562 9.4 234 10.8 101280 100
2009-04-09 08:44:42 51°17.429 2°35.54 9.1 283 10.8 101280 100
2009-04-09 08:44:48 51°17.431 2°35.505 9.4 19 10.8 101280 100
2009-04-09 08:44:53 51°17.432 2°35.477 9.5 283 10.8 101280 100
2009-04-09 08:44:58 51°17.434 2°35.448 7.1 36 10.8 101270 100
2009-04-09 08:45:02 51°17.436 2°35.426 9.4 280 10.8 101270 100
2009-04-09 08:45:08 51°17.437 2°35.39 9.1 22 10.8 101280 100
2009-04-09 08:45:13 51°17.44 2°35.361 7.1 281 10.8 101280 100
2009-04-09 08:45:18 51°17.442 2°35.333 8.9 21 10.8 101280 100
2009-04-09 08:45:22 51°17.444 2°35.31 8.9 283 10.8 101280 100
2009-04-09 08:45:28 51°17.447 2°35.276 9.1 21 10.8 101280 100
2009-04-09 08:45:33 51°17.449 2°35.247 9.3 285 10.8 101280 100
2009-04-09 08:45:38 51°17.451 2°35.219 9.2 20 10.8 101280 100
2009-04-09 08:45:43 51°17.454 2°35.191 7.5 284 10.8 101280 100
2009-04-09 08:45:48 51°17.456 2°35.162 9.1 24 10.8 101280 100
2009-04-09 08:45:54 51°17.46 2°35.129 8.8 286 10.8 101280 100
2009-04-09 08:45:58 51°17.461 2°35.106 8.8 27 10.8 101270 100
2009-04-09 08:46:03 51°17.464 2°35.079 7.3 280 10.8 101270 100
2009-04-09 08:46:08 51°17.467 2°35.051 8.5 33 10.8 101270 100
2009-04-09 08:46:14 51°17.471 2°35.016 7.3 284 10.8 101270 100
2009-04-09 08:46:18 51°17.474 2°34.993 7 24 10.8 101270 100
2009-04-09 08:46:23 51°17.477 2°34.965 8.7 287 10.8 101270 100
2009-04-09 08:46:27 51°17.48 2°34.943 8.6 24 10.8 101270 100
2009-04-09 08:46:33 51°17.483 2°34.91 7.1 279 10.8 101270 100
2009-04-09 08:46:38 51°17.486 2°34.882 6.9 26 10.8 101270 100
2009-04-09 08:46:43 51°17.49 2°34.854 9.3 280 10.8 101270 100
2009-04-09 08:46:47 51°17.492 2°34.831 7.1 28 10.8 101270 100
2009-04-09 08:46:53 51°17.496 2°34.798 9 280 10.8 101270 100
2009-04-09 08:46:58 51°17.499 2°34.77 7.1 23 10.8 101270 100
2009-04-09 08:47:03 51°17.502 2°34.742 7.3 283 10.8 101270 100
2009-04-09 08:47:08 51°17.506 2°34.714 8.6 22 10.8 101270 100
2009-04-09 08:47:14 51°17.51 2°34.68 8.7 282 10.8 101270 100
2009-04-09 08:47:18 51°17.513 2°34.658 8.7 27 10.8 101270 100
2009-04-09 08:47:23 51°17.516 2°34.63 6.9 286 10.8 101270 100
2009-04-09 08:47:28 51°17.52 2°34.601 8.9 23 10.8 101270 100
2009-04-09 08:47:34 51°17.524 2°34.567 7.6 284 10.8 101270 100
2009-04-09 08:47:38 51°17.527 2°34.544 9.5 21 10.8 101270 100
2009-04-09 08:47:42 51°17.529 2°34.521 9.1 282 10.8 101270 100
2009-04-09 08:47:48 51°17.532 2°34.487 9.6 19 10.8 101270 100
2009-04-09 08:47:54 51°17.534 2°34.452 7.6 281 10.8 101270 100
2009-04-09 08:47:58 51°17.534 2°34.429 7.6 28 10.8 101280 100
2009-04-09 08:48:02 51°17.534 2°34.406 10 284 10.8 101280 100
2009-04-09 08:48:08 51°17.534 2°34.371 9.8 21 10.8 101270 100
2009-04-09 08:48:13 51°17.532 2°34.342 10.4 280 10.8 101270 100
2009-04-09 08:48:18 51°17.529 2°34.314 8.2 26 10.8 101270 100
2009-04-09 08:48:22 51°17.527 2°34.292 10.8 281 10.8 101270 100
2009-04-09 08:48:28 51°17.522 2°34.258 10.2 21 10.8 101270 100
2009-04-09 08:48:33 51°17.518 2°34.231 10.6 282 10.8 101270 100
2009-04-09 08:48:38 51°17.512 2°34.204 11 22 10.8 101270 100
2009-04-09 08:48:42 51°17.506 2°34.184 11 280 10.8 101270 100
2009-04-09 08:48:48 51°17.498 2°34.152 11.8 27 10.8 101270 100
2009-04-09 08:48:53 51°17.489 2°34.127 8.9 283 10.8 101270 100
2009-04-09 08:48:58 51°17.481 2°34.101 12.3 23 10.8 101270 100
2009-04-09 08:49:02 51°17.473 2°34.082 9.3 281 10.8 101270 100
2009-04-09 08:49:08 51°17.461 2°34.054 12.2 317 10.8 101270 100
2009-04-09 08:49:13 51°17.45 2°34.031 10.1 284 10.8 101270 100
2009-04-09 08:49:18 51°17.439 2°34.009 9.9 319 10.8 101260 100
2009-04-09 08:49:23 51°17.427 2°33.988 10 283 10.8 101260 100
2009-04-09 08:49:28 51°17.414 2°33.968 10.1 319 10.8 101270 100
2009-04-09 08:49:33 51°17.401 2°33.949 10 281 10.8 101270 100
2009-04-09 08:49:38 51°17.387 2°33.93 10.2 321 10.8 101260 100
2009-04-09 08:49:43 51°17.374 2°33.911 13 281 10.8 101260 100
2009-04-09 08:49:48 51°17.359 2°33.895 12.4 321 10.8 101260 100
2009-04-09 08:49:53 51°17.345 2°33.877 12.4 279 10.8 101260 100
2009-04-09 08:49:58 51°17.33 2°33.861 12.7 320 10.8 101260 100
2009-04-09 08:50:03 51°17.315 2°33.845 12.3 281 10.8 101260 100
2009-04-09 08:50:08 51°17.301 2°33.828 10 321 10.8 101260 100
2009-04-09 08:50:14 51°17.283 2°33.808 11.1 284 10.8 101260 100
2009-04-09 08:50:18 51°17.271 2°33.794 12.4 320 10.8 101260 100
2009-04-09 08:50:23 51°17.257 2°33.776 12.5 279 10.8 101260 100
2009-04-09 08:50:27 51°17.245 2°33.762 12.2 319 10.8 101270 100
2009-04-09 08:50:34 51°17.226 2°33.738 12.2 284 10.8 101270 100
2009-04-09 08:50:38 51°17.214 2°33.723 10.2 319 10.8 101260 100
2009-04-09 08:50:43 51°17.2 2°33.705 10.2 281 10.8 101260 100
2009-04-09 08:50:47 51°17.189 2°33.689 12.4 320 10.8 101260 100
2009-04-09 08:50:54 51°17.169 2°33.664 12.4 279 10.8 101260 100
2009-04-09 08:50:58 51°17.158 2°33.649 12.3 320 10.8 101260 100
2009-04-09 08:51:03 51°17.144 2°33.631 9.8 277 10.8 101260 100
2009-04-09 08:51:08 51°17.13 2°33.612 12.5 319 10.8 101260 100
2009-04-09 08:51:13 51°17.116 2°33.593 11.9 282 10.8 101260 100
2009-04-09 08:51:18 51°17.103 2°33.574 12.4 319 10.8 101260 100
2009-04-09 08:51:23 51°17.089 2°33.554 10.4 277 10.8 101260 100
2009-04-09 08:51:28 51°17.076 2°33.534 11.9 318 10.8 101260 100
2009-04-09 08:51:34 51°17.061 2°33.508 9.8 281 10.8 101260 100
2009-04-09 08:51:38 51°17.051 2°33.491 12.3 318 10.8 101260 100
2009-04-09 08:51:42 51°17.041 2°33.474 9.5 280 10.8 101260 100
2009-04-09 08:51:48 51°17.026 2°33.449 11.7 318 10.8 101260 100
2009-04-09 08:51:53 51°17.014 2°33.427 11.6 -999 10.8 101260 100
2009-04-09 08:51:58 51°17.002 2°33.406 11.9 318 10.8 101260 100
2009-04-09 08:52:02 51°16.992 2°33.389 11.7 281 10.8 101260 100
2009-04-09 08:52:08 51°16.977 2°33.363 11.8 317 10.8 101260 100
2009-04-09 08:52:13 51°16.965 2°33.341 9.6 280 10.8 101260 100
2009-04-09 08:52:18 51°16.953 2°33.319 11.5 318 10.8 101260 100
2009-04-09 08:52:23 51°16.941 2°33.298 9.9 280 10.8 101260 100
2009-04-09 08:52:28 51°16.929 2°33.277 11.7 319 10.8 101260 100
2009-04-09 08:52:34 51°16.914 2°33.251 9.5 280 10.8 101260 100
2009-04-09 08:52:38 51°16.904 2°33.234 9.6 318 10.8 101270 100
2009-04-09 08:52:42 51°16.895 2°33.216 11.8 285 10.8 101270 100
2009-04-09 08:52:48 51°16.88 2°33.19 11.8 317 10.7 101260 100
2009-04-09 08:52:54 51°16.866 2°33.164 9.6 283 10.7 101260 100
2009-04-09 08:52:58 51°16.857 2°33.146 9.5 317 10.8 101270 100
2009-04-09 08:53:02 51°16.847 2°33.129 9.3 280 10.8 101270 100
2009-04-09 08:53:08 51°16.833 2°33.102 9.4 318 10.7 101260 100
2009-04-09 08:53:13 51°16.821 2°33.081 11.8 286 10.7 101260 100
2009-04-09 08:53:18 51°16.809 2°33.059 9.5 317 10.7 101260 100
2009-04-09 08:53:22 51°16.8 2°33.041 11.3 281 10.7 101260 100
2009-04-09 08:53:28 51°16.785 2°33.015 9.4 318 10.7 101270 100
2009-04-09 08:53:33 51°16.774 2°32.993 11.7 286 10.7 101270 100
2009-04-09 08:53:38 51°16.762 2°32.971 11.6 318 10.7 101270 100
2009-04-09 08:53:43 51°16.75 2°32.949 9.3 281 10.7 101270 100
2009-04-09 08:53:48 51°16.738 2°32.928 11.7 317 10.7 101270 100
2009-04-09 08:53:54 51°16.724 2°32.901 11.4 -999 10.7 101270 100
2009-04-09 08:53:58 51°16.714 2°32.884 11.4 317 10.7 101270 100
2009-04-09 08:54:02 51°16.705 2°32.866 11.4 279 10.7 101270 100
2009-04-09 08:54:08 51°16.691 2°32.84 9.7 318 10.7 101270 100
2009-04-09 08:54:13 51°16.679 2°32.818 11.5 284 10.7 101270 100
2009-04-09 08:54:18 51°16.667 2°32.796 11.7 318 10.7 101270 100
2009-04-09 08:54:22 51°16.657 2°32.779 9.6 285 10.7 101270 100
2009-04-09 08:54:28 51°16.643 2°32.753 9.2 319 10.7 101270 100
2009-04-09 08:54:33 51°16.631 2°32.731 9.3 284 10.7 101270 100
2009-04-09 08:54:38 51°16.619 2°32.71 9.5 319 10.7 101270 100
2009-04-09 08:54:43 51°16.607 2°32.688 11.3 282 10.7 101270 100
2009-04-09 08:54:48 51°16.595 2°32.666 11.7 318 10.7 101270 100
2009-04-09 08:54:54 51°16.581 2°32.639 9.6 285 10.7 101270 100
2009-04-09 08:54:58 51°16.572 2°32.622 9.6 318 10.7 101270 100
2009-04-09 08:55:02 51°16.563 2°32.604 9.4 284 10.7 101270 100
2009-04-09 08:55:08 51°16.549 2°32.577 11.6 319 10.6 101270 100
2009-04-09 08:55:13 51°16.537 2°32.555 9.1 281 10.6 101270 100
2009-04-09 08:55:18 51°16.525 2°32.533 11.8 318 10.6 101270 100
2009-04-09 08:55:22 51°16.516 2°32.515 11.6 283 10.6 101270 100
2009-04-09 08:55:28 51°16.502 2°32.489 9.5 319 10.6 101270 100
2009-04-09 08:55:33 51°16.49 2°32.467 11.9 280 10.6 101270 100
2009-04-09 08:55:38 51°16.479 2°32.444 11.5 319 10.6 101270 100
2009-04-09 08:55:43 51°16.467 2°32.423 12.1 281 10.6 101270 100
2009-04-09 08:55:48 51°16.455 2°32.4 9.5 319 10.6 101270 100
2009-04-09 08:55:54 51°16.441 2°32.374 11.9 -999 10.6 101270 100
2009-04-09 08:55:58 51°16.432 2°32.356 9.9 318 10.6 101270 100
2009-04-09 08:56:02 51°16.422 2°32.339 10 285 10.6 101270 100
2009-04-09 08:56:08 51°16.409 2°32.312 12.3 318 10.6 101270 100
2009-04-09 08:56:13 51°16.397 2°32.29 11.9 286 10.6 101270 100
2009-04-09 08:56:18 51°16.385 2°32.268 9.8 319 10.6 101270 100
2009-04-09 08:56:22 51°16.376 2°32.25 9.9 280 10.6 101270 100
2009-04-09 08:56:28 51°16.361 2°32.224 10.2 319 10.6 101270 100
2009-04-09 08:56:33 51°16.349 2°32.202 9.8 278 10.6 101270 100
2009-04-09 08:56:38 51°16.337 2°32.181 12 319 10.6 101270 100
2009-04-09 08:56:43 51°16.325 2°32.158 12.2 284 10.6 101270 100
2009-04-09 08:56:48 51°16.313 2°32.136 10 319 10.6 101270 100